Weather History for Louisville Bowman, KY

Change the Weather History Date:

Monday, February 18, 2013

  Actual Average Record
Temperature  
Mean Temperature 47 °F 39 °F  
Max Temperature 62 °F 47 °F 72 °F (1986)
Min Temperature 31 °F 30 °F 1 °F (1958)
Degree Days  
Heating Degree Days 18 26  
Month to date heating degree days 500 506  
Since 1 July heating degree days 2951 3115  
Cooling Degree Days 0 0  
Month to date cooling degree days 0 0  
Year to date cooling degree days 0 0  
Moisture  
Dew Point 26 °F    
Average Humidity 48    
Maximum Humidity 66    
Minimum Humidity 29    
Precipitation  
Precipitation 0.12 in 0.12 in 0.67 in (1991)
Month to date precipitation 0.67 2.05  
Year to date precipitation 5.54 5.43  
Sea Level Pressure  
Sea Level Pressure 30.00 in    
Wind  
Wind Speed 10 mph (South)    
Max Wind Speed 25 mph    
Max Gust Speed 38 mph    
Visibility 10 miles    
Events Rain    
T = Trace of Precipitation, MM = Missing Value Source: NWS Daily Summary

Daily Weather History Graph

Daily Weather History Graph

Search for Another Location

Airport:

Trip Planner

Search our weather history database for the weather conditions in past years. The results will help you decide how hot, cold, wet, or windy it might be!

Date:

Astronomy

Feb. 18, 2013 Rise Set
Actual Time 7:28 AM EST 6:24 PM EST
Civil Twilight 7:02 AM EST 6:51 PM EST
Nautical Twilight 6:31 AM EST 7:22 PM EST
Astronomical Twilight 6:00 AM EST 7:53 PM EST
Moon 12:12 PM EST (2/18) 2:05 AM EST (2/18)
Length of Visible Light 11h 49m
Length of Day
10h 55m
First Quarter, 58% of the Moon is Illuminated
Feb 18
First Quarter
Feb 25
Full
Mar 4
Last Quarter
Mar 11
New
Mar 19
First Quarter

Hourly Weather History & Observations

Time (EST) Temp. Windchill Dew Point Humidity Pressure Visibility Wind Dir Wind Speed Gust Speed Precip Events Conditions
12:53 AM 32.0 °F - 12.9 °F 45% 30.21 in 10.0 mi Calm Calm - N/A   Clear
1:53 AM 30.9 °F 27.5 °F 12.9 °F 47% 30.19 in 10.0 mi SE 3.5 mph - N/A   Clear
2:53 AM 32.0 °F 28.7 °F 12.9 °F 45% 30.18 in 10.0 mi SE 3.5 mph - N/A   Clear
3:53 AM 32.0 °F 26.4 °F 14.0 °F 48% 30.15 in 10.0 mi SE 5.8 mph - N/A   Clear
4:53 AM 32.0 °F 26.4 °F 15.1 °F 50% 30.14 in 10.0 mi SSE 5.8 mph - N/A   Clear
5:53 AM 33.1 °F 28.7 °F 16.0 °F 50% 30.14 in 10.0 mi SE 4.6 mph - N/A   Clear
6:53 AM 33.1 °F 27.7 °F 17.1 °F 52% 30.13 in 10.0 mi SSE 5.8 mph - N/A   Clear
7:53 AM 34.0 °F 29.8 °F 18.0 °F 52% 30.13 in 10.0 mi SSE 4.6 mph - N/A   Clear
8:53 AM 37.4 °F 32.8 °F 19.4 °F 48% 30.11 in 10.0 mi SSE 5.8 mph - N/A   Clear
9:53 AM 44.1 °F 37.7 °F 23.0 °F 43% 30.10 in 10.0 mi South 12.7 mph 18.4 mph N/A   Clear
10:53 AM 48.0 °F - 28.0 °F 46% 30.08 in 10.0 mi South 12.7 mph 18.4 mph N/A   Clear
11:53 AM 53.1 °F - 30.9 °F 43% 30.05 in 10.0 mi South 11.5 mph 19.6 mph N/A   Clear
12:53 PM 59.0 °F - 34.0 °F 39% 30.02 in 10.0 mi SSW 15.0 mph 21.9 mph N/A   Clear
1:53 PM 60.1 °F - 33.1 °F 36% 29.98 in 10.0 mi South 11.5 mph 21.9 mph N/A   Clear
2:53 PM 62.1 °F - 30.9 °F 31% 29.95 in 10.0 mi South 12.7 mph 26.5 mph N/A   Clear
3:53 PM 61.0 °F - 30.0 °F 31% 29.91 in 10.0 mi South 13.8 mph 24.2 mph N/A   Clear
4:53 PM 60.1 °F - 28.9 °F 31% 29.89 in 10.0 mi South 12.7 mph 26.5 mph N/A   Mostly Cloudy
5:53 PM 60.1 °F - 28.9 °F 31% 29.87 in 10.0 mi South 11.5 mph 21.9 mph N/A   Overcast
6:53 PM 59.0 °F - 30.0 °F 33% 29.86 in 10.0 mi South 15.0 mph 24.2 mph N/A   Overcast
7:53 PM 55.0 °F - 36.0 °F 49% 29.85 in 10.0 mi South 20.7 mph 38.0 mph 0.00 in Rain Light Rain
8:53 PM 52.0 °F - 39.0 °F 61% 29.80 in 10.0 mi SSE 9.2 mph 25.3 mph 0.01 in Rain Light Rain
9:53 PM 52.0 °F - 37.9 °F 59% 29.81 in 7.0 mi South 20.7 mph 33.4 mph 0.02 in Rain Light Rain
10:53 PM 50.0 °F - 39.9 °F 68% 29.78 in 10.0 mi South 13.8 mph 26.5 mph 0.02 in Rain Light Rain
11:53 PM 48.0 °F - 41.0 °F 77% 29.78 in 9.0 mi South 15.0 mph 23.0 mph 0.07 in Rain Light Rain